N8SHA Weather Reports


time (UTC)temp
C
wind
direction
speed
KPH
gust
KPH
rain 1hr
cm
rain 24hr
cm
rain mn
cm
humidity
%
barometer
mb
20260504035931 10 187 4.8 16.1 0.00 0.00 0.00 69 1007.6
20260504035429 10 218 6.4 11.3 0.00 0.00 0.00 69 1007.6
20260504034926 10 199 6.4 16.1 0.00 0.00 0.00 69 1007.8
20260504034423 10 272 4.8 8.0 0.00 0.00 0.00 69 1007.5
20260504033920 10 185 6.4 11.3 0.00 0.00 0.00 68 1007.6
20260504033418 10 173 4.8 17.7 0.00 0.00 0.00 68 1007.9
20260504032915 10 212 4.8 17.7 0.00 0.00 0.00 68 1007.9
20260504032411 10 199 6.4 11.3 0.00 0.00 0.00 69 1007.9
20260504031908 10 200 3.2 6.4 0.00 0.00 0.00 69 1007.9
20260504031405 10 220 6.4 11.3 0.00 0.00 0.00 68 1008.2
20260504030902 10 151 4.8 11.3 0.00 0.00 0.00 68 1007.9
20260504030359 10 155 8.0 14.5 0.00 0.00 0.00 68 1007.8
20260504025855 10 194 3.2 12.9 0.00 0.00 0.00 68 1008.1
20260504025352 10 155 4.8 11.3 0.00 0.00 0.00 68 1008.0
20260504024849 10 151 1.6 11.3 0.00 0.00 0.00 68 1008.0
20260504024345 10 176 3.2 12.9 0.00 0.00 0.00 67 1008.2
20260504023842 10 209 6.4 12.9 0.00 0.00 0.00 67 1008.2
20260504023339 10 185 9.7 14.5 0.00 0.00 0.00 67 1008.3
20260504022834 10 199 3.2 19.3 0.00 0.00 0.00 67 1008.2
20260504022332 10 166 1.6 16.1 0.00 0.00 0.00 67 1008.2
20260504021828 10 166 4.8 12.9 0.00 0.00 0.00 67 1008.2
20260504021326 10 147 3.2 8.0 0.00 0.00 0.00 66 1008.4
20260504020822 10 201 3.2 8.0 0.00 0.00 0.00 66 1008.4
20260504020319 11 196 4.8 14.5 0.00 0.00 0.00 66 1008.4
20260504015815 11 177 4.8 11.3 0.00 0.00 0.00 66 1008.5
20260504015311 10 89 1.6 9.7 0.00 0.00 0.00 66 1008.6
20260504014808 11 144 6.4 9.7 0.00 0.00 0.00 65 1008.5
20260504014304 11 171 3.2 6.4 0.00 0.00 0.00 66 1008.3
20260504013802 11 176 4.8 9.7 0.00 0.00 0.00 65 1008.4
20260504013259 11 142 1.6 8.0 0.00 0.00 0.00 65 1008.5
20260504012755 11 186 6.4 9.7 0.00 0.00 0.00 64 1008.4
20260504012254 11 153 4.8 9.7 0.00 0.00 0.00 65 1008.3
20260504011750 11 107 8.0 14.5 0.00 0.00 0.00 65 1008.3
20260504011247 11 136 1.6 11.3 0.00 0.00 0.00 64 1008.3
20260504010743 11 194 6.4 11.3 0.00 0.00 0.00 64 1008.4
20260504010238 11 225 8.0 17.7 0.00 0.00 0.00 64 1008.3
20260504005735 11 156 3.2 4.8 0.00 0.00 0.00 64 1008.5
20260504005233 11 186 4.8 12.9 0.00 0.00 0.00 63 1008.5
20260504004730 11 171 8.0 12.9 0.00 0.00 0.00 63 1008.5
20260504004227 11 165 3.2 11.3 0.00 0.00 0.00 63 1008.6
20260504003724 11 182 8.0 12.9 0.00 0.00 0.00 62 1008.5
20260504003221 11 192 4.8 14.5 0.00 0.00 0.00 63 1008.6
20260504002717 12 184 4.8 11.3 0.00 0.00 0.00 62 1008.6
20260504002214 12 174 9.7 14.5 0.00 0.00 0.00 61 1008.7
20260504001713 12 192 3.2 11.3 0.00 0.00 0.00 61 1008.7
20260504001209 12 174 12.9 17.7 0.00 0.00 0.00 60 1008.5
20260504000706 12 172 9.7 20.9 0.00 0.00 0.00 59 1008.9
20260504000204 12 173 19.3 20.9 0.00 0.00 0.00 59 1008.9
20260503235701 12 193 8.0 25.7 0.00 0.00 0.00 58 1008.5
20260503235157 13 186 12.9 25.7 0.00 0.00 0.00 58 1008.5
20260503234655 13 180 4.8 17.7 0.00 0.00 0.00 58 1008.5
20260503234154 13 165 9.7 24.1 0.00 0.00 0.00 57 1008.4
20260503233650 13 186 6.4 17.7 0.00 0.00 0.00 57 1008.4
20260503233146 13 191 8.0 17.7 0.00 0.00 0.00 56 1008.6
20260503232643 13 206 1.6 14.5 0.00 0.00 0.00 55 1008.4
20260503232140 13 160 3.2 12.9 0.00 0.00 0.00 55 1008.3
20260503231638 13 129 3.2 11.3 0.00 0.00 0.00 54 1008.2
20260503231134 14 185 14.5 24.1 0.00 0.00 0.00 52 1008.3
20260503230631 14 179 16.1 20.9 0.00 0.00 0.00 51 1008.6
20260503230128 14 160 6.4 19.3 0.00 0.00 0.00 51 1008.5
20260503225626 14 180 8.0 19.3 0.00 0.00 0.00 50 1008.6
20260503225125 14 180 11.3 25.7 0.00 0.00 0.00 49 1008.6
20260503224623 14 190 4.8 19.3 0.00 0.00 0.00 49 1008.7
20260503224121 15 208 9.7 17.7 0.00 0.00 0.00 49 1008.9
20260503223619 15 177 6.4 14.5 0.00 0.00 0.00 49 1008.8
20260503223114 15 186 4.8 12.9 0.00 0.00 0.00 48 1008.8
20260503222612 15 195 6.4 11.3 0.00 0.00 0.00 48 1008.8
20260503222110 15 179 6.4 17.7 0.00 0.00 0.00 47 1008.7
20260503221608 15 200 6.4 17.7 0.00 0.00 0.00 47 1008.7
20260503221105 15 172 8.0 16.1 0.00 0.00 0.00 47 1008.7
20260503220601 15 185 4.8 19.3 0.00 0.00 0.00 47 1008.7
20260503220058 16 43 3.2 12.9 0.00 0.00 0.00 46 1008.8
20260503215555 16 180 6.4 20.9 0.00 0.00 0.00 46 1008.7
20260503215052 16 188 6.4 11.3 0.00 0.00 0.00 44 1008.7
20260503214550 16 225 3.2 16.1 0.00 0.00 0.00 43 1008.6
20260503214046 16 175 11.3 14.5 0.00 0.00 0.00 45 1008.7
20260503213545 16 191 9.7 14.5 0.00 0.00 0.00 45 1008.7
20260503213041 16 180 1.6 14.5 0.00 0.00 0.00 45 1008.8
20260503212539 16 210 8.0 22.5 0.00 0.00 0.00 45 1008.8
20260503212036 16 215 8.0 14.5 0.00 0.00 0.00 44 1008.5
20260503211533 16 185 6.4 27.4 0.00 0.00 0.00 44 1008.7
20260503211028 16 191 11.3 22.5 0.00 0.00 0.00 44 1008.6
20260503210526 16 167 8.0 24.1 0.00 0.00 0.00 43 1008.8
20260503210021 17 180 8.0 25.7 0.00 0.00 0.00 42 1008.7
20260503205518 16 233 4.8 12.9 0.00 0.00 0.00 44 1008.8
20260503205015 16 159 4.8 24.1 0.00 0.00 0.00 42 1008.8
20260503204512 17 181 8.0 16.1 0.00 0.00 0.00 41 1008.8
20260503204009 18 183 6.4 17.7 0.00 0.00 0.00 40 1008.5
20260503203506 17 240 3.2 17.7 0.00 0.00 0.00 39 1008.8
20260503203003 17 182 11.3 20.9 0.00 0.00 0.00 40 1008.9
20260503202501 17 178 3.2 32.2 0.00 0.00 0.00 41 1009.0
20260503201959 18 198 12.9 19.3 0.00 0.00 0.00 38 1008.8
20260503201456 18 205 6.4 19.3 0.00 0.00 0.00 38 1008.9
20260503200953 18 327 9.7 20.9 0.00 0.00 0.00 41 1008.9
20260503200449 18 204 3.2 14.5 0.00 0.00 0.00 40 1009.0
20260503195946 17 119 6.4 19.3 0.00 0.00 0.00 40 1009.1
20260503195444 17 199 22.5 27.4 0.00 0.00 0.00 38 1009.1
20260503194940 17 314 3.2 24.1 0.00 0.00 0.00 38 1009.3
20260503194437 18 194 3.2 24.1 0.00 0.00 0.00 38 1009.2
20260503193932 18 172 9.7 24.1 0.00 0.00 0.00 39 1009.1
20260503193428 17 212 12.9 19.3 0.00 0.00 0.00 39 1009.2
20260503192924 17 145 8.0 17.7 0.00 0.00 0.00 39 1009.5
20260503192421 16 288 4.8 14.5 0.00 0.00 0.00 39 1009.6
20260503191916 17 191 6.4 14.5 0.00 0.00 0.00 40 1009.5
20260503191414 18 157 8.0 14.5 0.00 0.00 0.00 39 1009.4
20260503190910 17 192 17.7 33.8 0.00 0.00 0.00 39 1009.6
20260503190408 17 237 3.2 22.5 0.00 0.00 0.00 39 1009.7
20260503185904 16 121 4.8 9.7 0.00 0.00 0.00 43 1009.6
20260503185401 16 187 8.0 14.5 0.00 0.00 0.00 43 1009.7
20260503184900 16 251 0.0 14.5 0.00 0.00 0.00 43 1010.2
20260503184356 17 200 3.2 16.1 0.00 0.00 0.00 42 1010.1
20260503183853 18 252 8.0 24.1 0.00 0.00 0.00 40 1010.2
20260503183350 18 239 3.2 17.7 0.00 0.00 0.00 42 1009.8
20260503182847 17 170 4.8 17.7 0.00 0.00 0.00 45 1010.3
20260503182346 16 192 14.5 33.8 0.00 0.00 0.00 44 1010.3
20260503181842 16 320 8.0 14.5 0.00 0.00 0.00 43 1010.4
20260503181340 17 193 8.0 11.3 0.00 0.00 0.00 42 1010.4
20260503180836 17 247 6.4 16.1 0.00 0.00 0.00 43 1010.4
20260503180334 17 271 4.8 16.1 0.00 0.00 0.00 44 1010.7
20260503175830 16 314 1.6 24.1 0.00 0.00 0.00 44 1010.5
20260503175328 16 170 16.1 19.3 0.00 0.00 0.00 44 1010.7
20260503174823 16 161 6.4 8.0 0.00 0.00 0.00 46 1010.9
20260503174322 16 187 6.4 12.9 0.00 0.00 0.00 44 1010.8
20260503173817 16 213 4.8 19.3 0.00 0.00 0.00 44 1010.9
20260503173314 16 211 8.0 16.1 0.00 0.00 0.00 43 1011.1
20260503172810 17 191 11.3 12.9 0.00 0.00 0.00 43 1011.0
20260503172308 16 292 0.0 11.3 0.00 0.00 0.00 44 1011.1
20260503171804 15 271 8.0 16.1 0.00 0.00 0.00 44 1011.3
20260503171301 15 217 4.8 22.5 0.00 0.00 0.00 46 1011.1
20260503170758 15 170 6.4 19.3 0.00 0.00 0.00 45 1011.5
20260503170255 15 184 9.7 20.9 0.00 0.00 0.00 45 1011.3
20260503160217 13 180 14.5 20.9 0.00 0.00 0.00 46 1012.0
20260503150647 11 177 4.8 12.9 0.00 0.00 0.00 50 1012.7
20260503150143 11 177 0.0 11.3 0.00 0.00 0.00 50 1012.8
20260503140108 11 163 6.4 17.7 0.00 0.00 0.00 49 1012.8
20260503131037 9 175 9.7 17.7 0.00 0.00 0.00 54 1012.9
20260503130534 8 182 4.8 9.7 0.00 0.00 0.00 55 1013.0
20260503110425 5 189 3.2 20.9 0.00 0.00 0.00 59 1012.8
20260503090316 2 296 0.0 6.4 0.00 0.00 0.00 61 1013.7
20260503081243 3 169 0.0 8.0 0.00 0.00 0.00 60 1014.3
20260503080738 3 161 3.2 4.8 0.00 0.00 0.00 60 1014.1
20260503080236 3 166 1.6 9.7 0.00 0.00 0.00 60 1014.2
20260503072713 3 189 3.2 4.8 0.00 0.00 0.00 60 1014.4
20260503072209 3 150 3.2 8.0 0.00 0.00 0.00 59 1014.3
20260503071706 3 201 4.8 8.0 0.00 0.00 0.00 59 1014.4
20260503071203 3 155 0.0 6.4 0.00 0.00 0.00 60 1014.3
20260503070659 3 152 4.8 4.8 0.00 0.00 0.00 59 1014.4
20260503070158 3 162 3.2 9.7 0.00 0.00 0.00 59 1014.5
20260503060122 3 137 3.2 4.8 0.00 0.00 0.00 60 1014.9
20260503055114 3 152 3.2 6.4 0.00 0.00 0.00 61 1015.0
20260503054609 3 128 1.6 4.8 0.00 0.00 0.00 60 1014.9
20260503054106 3 181 3.2 8.0 0.00 0.00 0.00 59 1015.3
20260503053604 3 200 0.0 4.8 0.00 0.00 0.00 60 1015.0
20260503053102 3 157 3.2 4.8 0.00 0.00 0.00 60 1015.1
20260503052559 3 181 3.2 9.7 0.00 0.00 0.00 60 1015.1
20260503052055 3 136 3.2 4.8 0.00 0.00 0.00 60 1015.1
20260503051550 3 122 1.6 9.7 0.00 0.00 0.00 60 1015.3
20260503051049 3 167 4.8 11.3 0.00 0.00 0.00 60 1015.2
20260503050544 3 176 0.0 8.0 0.00 0.00 0.00 60 1015.2
20260503050042 3 179 3.2 6.4 0.00 0.00 0.00 61 1015.2
20260503045539 4 148 3.2 9.7 0.00 0.00 0.00 60 1015.2
20260503045036 3 148 4.8 6.4 0.00 0.00 0.00 61 1015.4
20260503044532 3 166 3.2 9.7 0.00 0.00 0.00 61 1015.3
20260503044030 3 161 3.2 8.0 0.00 0.00 0.00 61 1015.2
20260503043526 3 165 3.2 8.0 0.00 0.00 0.00 62 1015.3
20260503043023 3 180 3.2 4.8 0.00 0.00 0.00 62 1015.1
20260503042520 4 194 3.2 8.0 0.00 0.00 0.00 62 1015.1
20260503042016 3 157 3.2 6.4 0.00 0.00 0.00 62 1015.2
20260503041513 4 192 3.2 4.8 0.00 0.00 0.00 62 1015.3
20260503041011 4 180 4.8 6.4 0.00 0.00 0.00 62 1015.5
20260503040508 4 156 3.2 6.4 0.00 0.00 0.00 62 1015.1